This demonstration page uses our WeatherBlox Daily Observations layout. Learn more.

36.17497, -115.13722

Hourly Observations for January 7, 2018

Temp ( °F °C ) Dew Point ( °F °C ) Humidity (%) Winds ( mph kmh ) Pressure ( in mb ) Visibility ( mi km ) Precip ( " mm )
12:53 am 00:53 Clear 55 12.8 37 2.8 51 51 NW 9 15 30.15 1021 10 16.0934 0 0
1:53 am 01:53 Clear 53 11.7 38 3.3 57 57 N 8 13 30.16 1021 10 16.0934 0 0
2:53 am 02:53 Clear 53 11.7 38 3.3 57 57 N 12 19 30.16 1021 10 16.0934 0 0
3:53 am 03:53 Clear 52 11.1 38 3.3 59 59 Calm 30.18 1022 10 16.0934 0 0
4:53 am 04:53 Clear 51 10.6 38 3.3 61 61 Calm 30.19 1023 10 16.0934 0 0
5:53 am 05:53 Clear 49 9.4 35 1.7 59 59 NW 8 13 30.22 1024 10 16.0934 0 0
6:53 am 06:53 Sunny 48 8.9 37 2.8 66 66 W 8 13 30.25 1024 10 16.0934 0 0
7:53 am 07:53 Sunny 50 10 36 2.2 59 59 NW 6 9 30.27 1025 10 16.0934 0 0
8:53 am 08:53 Sunny 54 12.2 35 1.7 49 49 N 9 15 30.27 1025 10 16.0934 0 0
9:53 am 09:53 Sunny 59 15 34 1.1 39 39 N 8 13 30.26 1025 10 16.0934 0 0
10:53 am 10:53 Sunny 62 16.7 33 0.6 34 34 VRB 3 6 30.24 1024 10 16.0934 0 0
11:53 am 11:53 Sunny 61 16.1 32 0 34 34 SE 5 7 30.2 1023 10 16.0934 0 0
12:53 pm 12:53 Sunny 62 16.7 30 -1.1 30 30 Calm 30.17 1022 10 16.0934 0 0
1:53 pm 13:53 Sunny 64 17.8 29 -1.7 27 27 Calm 30.16 1021 10 16.0934 0 0
2:53 pm 14:53 Sunny 64 17.8 29 -1.7 27 27 E 7 11 30.14 1021 10 16.0934 0 0
3:53 pm 15:53 Sunny 63 17.2 29 -1.7 28 28 ESE 3 6 30.14 1021 10 16.0934 0 0
4:53 pm 16:53 Clear 61 16.1 29 -1.7 30 30 Calm 30.14 1021 10 16.0934 0 0
5:53 pm 17:53 Clear 56 13.3 29 -1.7 36 36 Calm 30.16 1022 10 16.0934 0 0
6:53 pm 18:53 Clear 52 11.1 29 -1.7 41 41 Calm 30.17 1022 10 16.0934 0 0
7:53 pm 19:53 Clear 53 11.7 29 -1.7 40 40 NNW 3 6 30.17 1022 10 16.0934 0 0
8:53 pm 20:53 Clear 50 10 28 -2.2 43 43 NW 5 7 30.17 1022 10 16.0934 0 0
9:53 pm 21:53 Clear 50 10 29 -1.7 44 44 WNW 5 7 30.16 1021 10 16.0934 0 0
10:53 pm 22:53 Clear 49 9.4 29 -1.7 46 46 N 5 7 30.16 1021 10 16.0934 0 0
11:53 pm 23:53 Clear 49 9.4 27 -2.8 43 43 NNW 5 7 30.15 1021 10 16.0934 0 0

Powered by AerisWeather